Time,TemperatureF,DewpointF,PressureIn,WindDirection,WindDirectionDegrees,WindSpeedMPH,WindSpeedGustMPH,Humidity,HourlyPrecipIn,Conditions,Clouds,dailyrainin,SolarRadiationWatts/m^2,SoftwareType,DateUTC
2013-03-02 00:00:00,23.4,16.3,30.31,NNE,17,0.0,16.0,74,0.00,,,0.00,0,Wunderground v.1.15,2013-03-02 06:00:00,
2013-03-02 00:10:00,23.3,16.2,30.31,NNE,13,0.0,16.0,74,0.00,,,0.00,0,Wunderground v.1.15,2013-03-02 06:10:00,
2013-03-02 00:20:00,23.0,15.9,30.30,North,355,0.0,16.0,74,0.00,,,0.00,0,Wunderground v.1.15,2013-03-02 06:20:00,
2013-03-02 00:30:00,22.9,15.8,30.30,North,11,0.0,16.0,74,0.00,,,0.00,0,Wunderground v.1.15,2013-03-02 06:30:00,
2013-03-02 00:40:00,22.8,15.8,30.30,North,9,0.0,16.0,74,0.00,,,0.00,0,Wunderground v.1.15,2013-03-02 06:40:00,
2013-03-02 00:50:00,22.7,15.7,30.30,NNE,15,0.0,16.0,74,0.00,,,0.00,0,Wunderground v.1.15,2013-03-02 06:50:00,
2013-03-02 00:55:00,22.6,15.6,30.30,North,9,0.0,16.0,74,0.00,,,0.00,0,Wunderground v.1.15,2013-03-02 06:55:00,
2013-03-02 01:00:00,22.6,15.9,30.30,NNE,12,0.0,16.0,75,0.00,,,0.00,0,Wunderground v.1.15,2013-03-02 07:00:00,
2013-03-02 01:10:00,22.6,15.9,30.30,NNE,12,0.0,16.0,75,0.00,,,0.00,0,Wunderground v.1.15,2013-03-02 07:10:00,
2013-03-02 01:20:00,22.5,15.8,30.30,North,11,0.0,16.0,75,0.00,,,0.00,0,Wunderground v.1.15,2013-03-02 07:20:00,
2013-03-02 01:25:00,22.5,15.8,30.30,North,11,0.0,16.0,75,0.00,,,0.00,0,Wunderground v.1.15,2013-03-02 07:25:00,
2013-03-02 01:30:00,22.5,15.8,30.30,NNE,15,0.0,16.0,75,0.00,,,0.00,0,Wunderground v.1.15,2013-03-02 07:30:00,
2013-03-02 01:40:00,22.4,15.7,30.30,NNE,15,0.0,16.0,75,0.00,,,0.00,0,Wunderground v.1.15,2013-03-02 07:40:00,
2013-03-02 01:45:00,22.4,15.7,30.30,NNE,15,0.0,16.0,75,0.00,,,0.00,0,Wunderground v.1.15,2013-03-02 07:45:00,
2013-03-02 01:50:00,22.3,15.6,30.30,NNE,15,0.0,16.0,75,0.00,,,0.00,0,Wunderground v.1.15,2013-03-02 07:50:00,
2013-03-02 02:00:00,22.2,15.5,30.30,NNE,15,0.0,16.0,75,0.00,,,0.00,0,Wunderground v.1.15,2013-03-02 08:00:00,
2013-03-02 02:10:00,22.1,15.4,30.30,NNW,348,0.0,16.0,75,0.00,,,0.00,0,Wunderground v.1.15,2013-03-02 08:10:00,
2013-03-02 02:15:00,22.1,15.7,30.31,North,349,0.0,16.0,76,0.00,,,0.00,0,Wunderground v.1.15,2013-03-02 08:15:00,
2013-03-02 02:25:00,22.0,15.6,30.31,North,355,0.0,16.0,76,0.00,,,0.00,0,Wunderground v.1.15,2013-03-02 08:25:00,
2013-03-02 02:30:00,22.0,15.6,30.30,North,355,0.0,16.0,76,0.00,,,0.00,0,Wunderground v.1.15,2013-03-02 08:30:00,
2013-03-02 02:40:00,21.9,15.5,30.30,North,349,0.0,16.0,76,0.00,,,0.00,0,Wunderground v.1.15,2013-03-02 08:40:00,
2013-03-02 02:50:00,21.8,15.4,30.30,NNW,341,0.0,16.0,76,0.00,,,0.00,0,Wunderground v.1.15,2013-03-02 08:50:00,
2013-03-02 03:00:00,21.8,15.4,30.30,NNW,341,0.0,16.0,76,0.00,,,0.00,0,Wunderground v.1.15,2013-03-02 09:00:00,
2013-03-02 03:05:00,21.8,15.4,30.30,NNE,17,0.0,16.0,76,0.00,,,0.00,0,Wunderground v.1.15,2013-03-02 09:05:00,
2013-03-02 03:15:00,21.8,15.7,30.30,NNE,17,0.0,16.0,77,0.00,,,0.00,0,Wunderground v.1.15,2013-03-02 09:15:00,
2013-03-02 03:20:00,21.8,15.7,30.30,NNE,17,0.0,16.0,77,0.00,,,0.00,0,Wunderground v.1.15,2013-03-02 09:20:00,
2013-03-02 03:30:00,21.8,15.7,30.29,NNE,18,0.0,16.0,77,0.00,,,0.00,0,Wunderground v.1.15,2013-03-02 09:30:00,
2013-03-02 03:35:00,21.8,15.7,30.29,NNE,19,0.0,16.0,77,0.00,,,0.00,0,Wunderground v.1.15,2013-03-02 09:35:00,
2013-03-02 03:45:00,21.7,15.6,30.29,NNE,19,0.0,16.0,77,0.00,,,0.00,0,Wunderground v.1.15,2013-03-02 09:45:00,
2013-03-02 03:50:00,21.7,15.6,30.29,NNE,19,0.0,16.0,77,0.00,,,0.00,0,Wunderground v.1.15,2013-03-02 09:50:00,
2013-03-02 04:00:00,21.7,15.6,30.28,NNE,19,0.0,16.0,77,0.00,,,0.00,0,Wunderground v.1.15,2013-03-02 10:00:00,
2013-03-02 04:05:00,21.7,15.6,30.28,NNE,15,0.0,16.0,77,0.00,,,0.00,0,Wunderground v.1.15,2013-03-02 10:05:00,
2013-03-02 04:10:00,21.6,15.5,30.28,NNE,15,0.0,16.0,77,0.00,,,0.00,0,Wunderground v.1.15,2013-03-02 10:10:00,
2013-03-02 04:15:00,21.5,15.4,30.28,North,355,0.0,16.0,77,0.00,,,0.00,0,Wunderground v.1.15,2013-03-02 10:15:00,
2013-03-02 04:25:00,21.5,15.4,30.28,North,355,0.0,16.0,77,0.00,,,0.00,0,Wunderground v.1.15,2013-03-02 10:25:00,
2013-03-02 04:40:00,21.2,15.4,30.28,NW,325,0.0,16.0,78,0.00,,,0.00,0,Wunderground v.1.15,2013-03-02 10:40:00,
2013-03-02 04:45:00,21.2,15.4,30.30,NW,322,0.0,16.0,78,0.00,,,0.00,0,Wunderground v.1.15,2013-03-02 10:45:00,
2013-03-02 04:55:00,21.1,15.3,30.30,NNW,344,0.0,16.0,78,0.00,,,0.00,0,Wunderground v.1.15,2013-03-02 10:55:00,
2013-03-02 05:05:00,21.1,15.3,30.30,North,355,0.0,16.0,78,0.00,,,0.00,0,Wunderground v.1.15,2013-03-02 11:05:00,
2013-03-02 05:15:00,21.1,15.3,30.30,NNW,346,0.0,16.0,78,0.00,,,0.00,0,Wunderground v.1.15,2013-03-02 11:15:00,
2013-03-02 05:25:00,21.1,15.6,30.30,NNW,338,0.0,16.0,79,0.00,,,0.00,0,Wunderground v.1.15,2013-03-02 11:25:00,
2013-03-02 05:35:00,21.1,15.6,30.30,North,360,0.0,16.0,79,0.00,,,0.00,0,Wunderground v.1.15,2013-03-02 11:35:00,
2013-03-02 05:45:00,21.0,15.5,30.30,NW,323,0.0,16.0,79,0.00,,,0.00,0,Wunderground v.1.15,2013-03-02 11:45:00,
2013-03-02 05:55:00,20.9,15.4,30.30,NW,322,0.0,16.0,79,0.00,,,0.00,0,Wunderground v.1.15,2013-03-02 11:55:00,
2013-03-02 06:00:00,20.9,15.4,30.31,NNW,345,0.0,16.0,79,0.00,,,0.00,0,Wunderground v.1.15,2013-03-02 12:00:00,
2013-03-02 06:10:00,20.6,15.1,30.31,NW,317,0.0,16.0,79,0.00,,,0.00,0,Wunderground v.1.15,2013-03-02 12:10:00,
2013-03-02 06:20:00,20.6,15.1,30.30,NW,317,0.0,16.0,79,0.00,,,0.00,0,Wunderground v.1.15,2013-03-02 12:20:00,
2013-03-02 06:30:00,20.5,15.0,30.30,NW,317,0.0,16.0,79,0.00,,,0.00,0,Wunderground v.1.15,2013-03-02 12:30:00,
2013-03-02 06:40:00,20.4,15.2,30.30,NW,324,0.0,16.0,80,0.00,,,0.00,0,Wunderground v.1.15,2013-03-02 12:40:00,
2013-03-02 06:50:00,20.2,15.0,30.30,NW,324,0.0,16.0,80,0.00,,,0.00,0,Wunderground v.1.15,2013-03-02 12:50:00,
2013-03-02 07:00:00,20.1,14.9,30.30,NW,324,0.0,16.0,80,0.00,,,0.00,5,Wunderground v.1.15,2013-03-02 13:00:00,
2013-03-02 07:10:00,20.0,14.8,30.30,NW,324,0.0,16.0,80,0.00,,,0.00,12,Wunderground v.1.15,2013-03-02 13:10:00,
2013-03-02 07:20:00,19.9,14.7,30.30,NW,324,0.0,16.0,80,0.00,,,0.00,21,Wunderground v.1.15,2013-03-02 13:20:00,
2013-03-02 07:30:00,19.9,14.7,30.30,NNW,329,0.0,16.0,80,0.00,,,0.00,23,Wunderground v.1.15,2013-03-02 13:30:00,
2013-03-02 07:35:00,19.9,15.0,30.30,NNW,329,0.0,16.0,81,0.00,,,0.00,28,Wunderground v.1.15,2013-03-02 13:35:00,
2013-03-02 07:45:00,19.8,14.6,30.30,NNW,329,0.0,16.0,80,0.00,,,0.00,42,Wunderground v.1.15,2013-03-02 13:45:00,
2013-03-02 07:55:00,19.9,15.0,30.30,NNW,329,0.0,16.0,81,0.00,,,0.00,130,Wunderground v.1.15,2013-03-02 13:55:00,
2013-03-02 08:00:00,19.9,15.0,30.30,NNW,329,0.0,16.0,81,0.00,,,0.00,111,Wunderground v.1.15,2013-03-02 14:00:00,
2013-03-02 08:10:00,20.3,15.1,30.30,NNW,329,0.0,16.0,80,0.00,,,0.00,223,Wunderground v.1.15,2013-03-02 14:10:00,
2013-03-02 08:20:00,20.5,15.0,30.31,NNW,329,0.0,16.0,79,0.00,,,0.00,207,Wunderground v.1.15,2013-03-02 14:20:00,
2013-03-02 08:30:00,20.9,15.4,30.30,NNW,329,0.0,16.0,79,0.00,,,0.00,241,Wunderground v.1.15,2013-03-02 14:30:00,
2013-03-02 08:40:00,21.0,15.5,30.30,NNW,329,0.0,16.0,79,0.00,,,0.00,272,Wunderground v.1.15,2013-03-02 14:40:00,
2013-03-02 08:50:00,21.6,15.8,30.31,NNW,329,0.0,16.0,78,0.00,,,0.00,359,Wunderground v.1.15,2013-03-02 14:50:00,
2013-03-02 08:55:00,22.1,16.3,30.31,NNW,329,0.0,16.0,78,0.00,,,0.00,336,Wunderground v.1.15,2013-03-02 14:55:00,
2013-03-02 09:00:00,22.6,16.5,30.30,NNW,329,0.0,16.0,77,0.00,,,0.00,355,Wunderground v.1.15,2013-03-02 15:00:00,
2013-03-02 09:10:00,22.0,15.6,30.30,NNW,333,0.0,16.0,76,0.00,,,0.00,387,Wunderground v.1.15,2013-03-02 15:10:00,
2013-03-02 09:20:00,22.8,16.1,30.30,NNW,347,0.0,16.0,75,0.00,,,0.00,406,Wunderground v.1.15,2013-03-02 15:20:00,
2013-03-02 09:25:00,22.8,16.1,30.30,NNW,347,0.0,16.0,75,0.00,,,0.00,415,Wunderground v.1.15,2013-03-02 15:25:00,
2013-03-02 09:35:00,23.5,16.7,30.30,North,355,0.0,16.0,75,0.00,,,0.00,448,Wunderground v.1.15,2013-03-02 15:35:00,
2013-03-02 09:40:00,23.4,16.3,30.30,North,355,0.0,16.0,74,0.00,,,0.00,455,Wunderground v.1.15,2013-03-02 15:40:00,
2013-03-02 09:50:00,24.4,17.6,30.31,NNW,336,0.0,16.0,75,0.00,,,0.00,494,Wunderground v.1.15,2013-03-02 15:50:00,
2013-03-02 10:00:00,24.8,17.1,30.29,NNW,340,0.0,16.0,72,0.00,,,0.00,564,Wunderground v.1.15,2013-03-02 16:00:00,
2013-03-02 10:05:00,25.0,17.2,30.29,NNW,340,0.0,16.0,72,0.00,,,0.00,515,Wunderground v.1.15,2013-03-02 16:05:00,
2013-03-02 10:15:00,24.9,16.8,30.28,North,350,0.0,16.0,71,0.00,,,0.00,591,Wunderground v.1.15,2013-03-02 16:15:00,
2013-03-02 10:25:00,26.8,18.7,30.28,North,355,0.0,16.0,71,0.00,,,0.00,645,Wunderground v.1.15,2013-03-02 16:25:00,
2013-03-02 10:30:00,26.7,18.2,30.28,North,355,0.0,16.0,70,0.00,,,0.00,487,Wunderground v.1.15,2013-03-02 16:30:00,
2013-03-02 10:40:00,26.3,17.8,30.28,North,355,0.0,16.0,70,0.00,,,0.00,601,Wunderground v.1.15,2013-03-02 16:40:00,
2013-03-02 10:50:00,26.8,18.0,30.27,SE,127,0.0,16.0,69,0.00,,,0.00,601,Wunderground v.1.15,2013-03-02 16:50:00,
2013-03-02 11:00:00,27.2,17.3,30.26,ESE,123,0.0,16.0,66,0.00,,,0.00,612,Wunderground v.1.15,2013-03-02 17:00:00,
2013-03-02 11:05:00,29.0,19.1,30.26,ESE,123,0.0,16.0,66,0.00,,,0.00,619,Wunderground v.1.15,2013-03-02 17:05:00,
2013-03-02 11:15:00,28.0,17.4,30.26,ESE,123,0.0,16.0,64,0.00,,,0.00,631,Wunderground v.1.15,2013-03-02 17:15:00,
2013-03-02 11:25:00,28.7,17.7,30.26,ESE,123,0.0,16.0,63,0.00,,,0.00,638,Wunderground v.1.15,2013-03-02 17:25:00,
2013-03-02 11:35:00,29.3,18.3,30.26,ESE,123,0.0,16.0,63,0.00,,,0.00,663,Wunderground v.1.15,2013-03-02 17:35:00,
2013-03-02 11:45:00,29.0,17.2,30.25,West,261,0.0,16.0,61,0.00,,,0.00,661,Wunderground v.1.15,2013-03-02 17:45:00,
2013-03-02 11:50:00,29.7,18.6,30.25,North,355,0.0,16.0,63,0.00,,,0.00,659,Wunderground v.1.15,2013-03-02 17:50:00,
2013-03-02 11:55:00,29.8,18.0,30.25,WNW,282,0.0,16.0,61,0.00,,,0.00,664,Wunderground v.1.15,2013-03-02 17:55:00,
2013-03-02 12:05:00,29.6,18.2,30.25,WSW,246,0.0,16.0,62,0.00,,,0.00,664,Wunderground v.1.15,2013-03-02 18:05:00,
2013-03-02 12:15:00,30.7,18.4,30.24,WSW,238,0.0,16.0,60,0.00,,,0.00,677,Wunderground v.1.15,2013-03-02 18:15:00,
2013-03-02 12:20:00,30.9,18.2,30.24,WSW,238,0.0,16.0,59,0.00,,,0.00,677,Wunderground v.1.15,2013-03-02 18:20:00,
2013-03-02 12:30:00,31.8,18.3,30.24,WSW,249,0.0,16.0,57,0.00,,,0.00,677,Wunderground v.1.15,2013-03-02 18:30:00,
2013-03-02 12:35:00,30.9,17.4,30.24,WSW,250,0.0,16.0,57,0.00,,,0.00,682,Wunderground v.1.15,2013-03-02 18:35:00,
2013-03-02 12:45:00,32.5,19.7,30.23,South,185,0.0,16.0,59,0.00,,,0.00,696,Wunderground v.1.15,2013-03-02 18:45:00,
2013-03-02 12:50:00,31.2,18.1,30.23,South,180,0.0,16.0,58,0.00,,,0.00,680,Wunderground v.1.15,2013-03-02 18:50:00,
2013-03-02 13:00:00,33.2,19.6,30.22,South,188,0.0,16.0,57,0.00,,,0.00,729,Wunderground v.1.15,2013-03-02 19:00:00,
2013-03-02 13:10:00,32.5,18.9,30.22,South,172,0.0,16.0,57,0.00,,,0.00,529,Wunderground v.1.15,2013-03-02 19:10:00,
2013-03-02 13:15:00,31.4,18.7,30.21,South,178,0.0,16.0,59,0.00,,,0.00,424,Wunderground v.1.15,2013-03-02 19:15:00,
2013-03-02 13:25:00,31.6,18.9,30.21,South,170,0.0,16.0,59,0.00,,,0.00,482,Wunderground v.1.15,2013-03-02 19:25:00,
2013-03-02 13:35:00,32.4,19.7,30.20,South,184,0.0,16.0,59,0.00,,,0.00,406,Wunderground v.1.15,2013-03-02 19:35:00,
2013-03-02 13:45:00,32.6,19.0,30.19,South,178,0.0,16.0,57,0.00,,,0.00,466,Wunderground v.1.15,2013-03-02 19:45:00,
2013-03-02 13:50:00,32.8,19.2,30.19,SSW,192,0.0,16.0,57,0.00,,,0.00,450,Wunderground v.1.15,2013-03-02 19:50:00,
2013-03-02 14:00:00,33.4,19.4,30.19,South,184,0.0,16.0,56,0.00,,,0.00,464,Wunderground v.1.15,2013-03-02 20:00:00,
2013-03-02 14:05:00,33.0,19.4,30.19,South,178,0.0,16.0,57,0.00,,,0.00,385,Wunderground v.1.15,2013-03-02 20:05:00,
2013-03-02 14:15:00,33.2,19.2,30.19,South,191,0.0,16.0,56,0.00,,,0.00,371,Wunderground v.1.15,2013-03-02 20:15:00,
2013-03-02 14:25:00,33.2,19.6,30.19,South,173,0.0,16.0,57,0.00,,,0.00,374,Wunderground v.1.15,2013-03-02 20:25:00,
2013-03-02 14:30:00,34.4,20.7,30.19,South,173,0.0,16.0,57,0.00,,,0.00,346,Wunderground v.1.15,2013-03-02 20:30:00,
2013-03-02 14:40:00,33.8,20.2,30.19,SW,215,0.0,16.0,57,0.00,,,0.00,313,Wunderground v.1.15,2013-03-02 20:40:00,
2013-03-02 14:45:00,33.7,20.1,30.18,SSE,150,0.0,16.0,57,0.00,,,0.00,345,Wunderground v.1.15,2013-03-02 20:45:00,
2013-03-02 14:55:00,34.7,21.4,30.18,SSE,155,0.0,16.0,58,0.00,,,0.00,309,Wunderground v.1.15,2013-03-02 20:55:00,
2013-03-02 15:05:00,33.7,21.3,30.17,ESE,117,0.0,16.0,60,0.00,,,0.00,250,Wunderground v.1.15,2013-03-02 21:05:00,
2013-03-02 15:15:00,33.3,21.3,30.17,SSE,158,0.0,16.0,61,0.00,,,0.00,279,Wunderground v.1.15,2013-03-02 21:15:00,
2013-03-02 15:20:00,33.5,21.5,30.17,SE,138,0.0,16.0,61,0.00,,,0.00,244,Wunderground v.1.15,2013-03-02 21:20:00,
2013-03-02 15:30:00,33.6,21.6,30.17,SE,143,0.0,16.0,61,0.00,,,0.00,241,Wunderground v.1.15,2013-03-02 21:30:00,
2013-03-02 15:40:00,33.1,21.1,30.17,SSE,160,0.0,16.0,61,0.00,,,0.00,188,Wunderground v.1.15,2013-03-02 21:40:00,
2013-03-02 15:45:00,33.0,20.6,30.17,SSW,201,0.0,16.0,60,0.00,,,0.00,193,Wunderground v.1.15,2013-03-02 21:45:00,
2013-03-02 15:55:00,33.0,20.2,30.17,SSE,163,0.0,16.0,59,0.00,,,0.00,165,Wunderground v.1.15,2013-03-02 21:55:00,
2013-03-02 16:05:00,33.1,20.7,30.15,South,186,0.0,16.0,60,0.00,,,0.00,141,Wunderground v.1.15,2013-03-02 22:05:00,
2013-03-02 16:15:00,33.3,19.7,30.16,SSE,166,0.0,16.0,57,0.00,,,0.00,128,Wunderground v.1.15,2013-03-02 22:15:00,
2013-03-02 16:25:00,33.5,20.7,30.16,SE,130,0.0,16.0,59,0.00,,,0.00,97,Wunderground v.1.15,2013-03-02 22:25:00,
2013-03-02 16:30:00,33.3,20.9,30.15,SSE,165,0.0,16.0,60,0.00,,,0.00,104,Wunderground v.1.15,2013-03-02 22:30:00,
2013-03-02 16:40:00,33.4,21.8,30.15,SSW,193,0.0,16.0,62,0.00,,,0.00,86,Wunderground v.1.15,2013-03-02 22:40:00,
2013-03-02 16:50:00,33.0,21.8,30.15,SE,140,0.0,16.0,63,0.00,,,0.00,98,Wunderground v.1.15,2013-03-02 22:50:00,
2013-03-02 16:55:00,33.1,22.6,30.15,South,173,0.0,16.0,65,0.00,,,0.00,91,Wunderground v.1.15,2013-03-02 22:55:00,
2013-03-02 17:00:00,33.2,22.7,30.14,SSE,152,0.0,16.0,65,0.00,,,0.00,97,Wunderground v.1.15,2013-03-02 23:00:00,
2013-03-02 17:10:00,33.2,22.7,30.14,SE,132,0.0,16.0,65,0.00,,,0.00,70,Wunderground v.1.15,2013-03-02 23:10:00,
2013-03-02 17:20:00,33.1,23.0,30.13,ESE,120,0.0,16.0,66,0.00,,,0.00,47,Wunderground v.1.15,2013-03-02 23:20:00,
2013-03-02 17:30:00,32.9,22.8,30.13,SSE,148,0.0,16.0,66,0.00,,,0.00,35,Wunderground v.1.15,2013-03-02 23:30:00,
2013-03-02 17:35:00,32.8,22.7,30.13,South,174,0.0,16.0,66,0.00,,,0.00,25,Wunderground v.1.15,2013-03-02 23:35:00,
2013-03-02 17:45:00,32.6,22.8,30.13,SE,126,0.0,16.0,67,0.00,,,0.00,14,Wunderground v.1.15,2013-03-02 23:45:00,
2013-03-02 17:55:00,32.5,23.1,30.13,SSE,150,0.0,16.0,68,0.00,,,0.00,5,Wunderground v.1.15,2013-03-02 23:55:00,
2013-03-02 18:00:00,32.5,23.1,30.13,SSE,148,0.0,16.0,68,0.00,,,0.00,0,Wunderground v.1.15,2013-03-03 00:00:00,
2013-03-02 18:05:00,32.4,23.0,30.13,SE,130,0.0,16.0,68,0.00,,,0.00,0,Wunderground v.1.15,2013-03-03 00:05:00,
2013-03-02 18:10:00,32.3,22.9,30.13,SE,132,0.0,16.0,68,0.00,,,0.00,0,Wunderground v.1.15,2013-03-03 00:10:00,
2013-03-02 18:20:00,32.2,22.8,30.12,SSE,147,0.0,16.0,68,0.00,,,0.00,0,Wunderground v.1.15,2013-03-03 00:20:00,
2013-03-02 18:30:00,32.1,23.1,30.12,South,185,0.0,16.0,69,0.00,,,0.00,0,Wunderground v.1.15,2013-03-03 00:30:00,
2013-03-02 18:35:00,32.0,23.0,30.12,SE,138,0.0,16.0,69,0.00,,,0.00,0,Wunderground v.1.15,2013-03-03 00:35:00,
2013-03-02 18:45:00,31.9,23.2,30.12,SSE,155,0.0,16.0,70,0.00,,,0.00,0,Wunderground v.1.15,2013-03-03 00:45:00,
2013-03-02 18:55:00,31.8,23.1,30.12,SSE,164,0.0,16.0,70,0.00,,,0.00,0,Wunderground v.1.15,2013-03-03 00:55:00,
2013-03-02 19:05:00,31.8,23.1,30.12,SE,144,0.0,16.0,70,0.00,,,0.00,0,Wunderground v.1.15,2013-03-03 01:05:00,
2013-03-02 19:10:00,31.8,23.1,30.12,SSE,150,0.0,16.0,70,0.00,,,0.00,0,Wunderground v.1.15,2013-03-03 01:10:00,
2013-03-02 19:20:00,31.7,23.0,30.11,SSE,163,0.0,16.0,70,0.00,,,0.00,0,Wunderground v.1.15,2013-03-03 01:20:00,
2013-03-02 19:25:00,31.6,22.9,30.11,SSE,158,0.0,16.0,70,0.00,,,0.00,0,Wunderground v.1.15,2013-03-03 01:25:00,
2013-03-02 19:30:00,31.6,22.9,30.11,SSE,151,0.0,16.0,70,0.00,,,0.00,0,Wunderground v.1.15,2013-03-03 01:30:00,
2013-03-02 19:40:00,31.4,23.1,30.11,SSE,153,0.0,16.0,71,0.00,,,0.00,0,Wunderground v.1.15,2013-03-03 01:40:00,
2013-03-02 19:45:00,31.4,23.1,30.10,SSE,154,0.0,16.0,71,0.00,,,0.00,0,Wunderground v.1.15,2013-03-03 01:45:00,
2013-03-02 19:55:00,31.2,23.2,30.10,SSE,155,0.0,16.0,72,0.00,,,0.00,0,Wunderground v.1.15,2013-03-03 01:55:00,
2013-03-02 20:05:00,31.1,23.5,30.10,SSE,151,0.0,16.0,73,0.00,,,0.00,0,Wunderground v.1.15,2013-03-03 02:05:00,
2013-03-02 20:15:00,31.2,23.5,30.10,SSE,157,0.0,16.0,73,0.00,,,0.00,0,Wunderground v.1.15,2013-03-03 02:15:00,
2013-03-02 20:25:00,31.3,23.3,30.10,South,176,0.0,16.0,72,0.00,,,0.00,0,Wunderground v.1.15,2013-03-03 02:25:00,
2013-03-02 20:35:00,31.4,23.1,30.10,South,180,0.0,16.0,71,0.00,,,0.00,0,Wunderground v.1.15,2013-03-03 02:35:00,
2013-03-02 20:40:00,31.5,22.8,30.10,SSE,165,0.0,16.0,70,0.00,,,0.00,0,Wunderground v.1.15,2013-03-03 02:40:00,
2013-03-02 20:50:00,31.5,22.8,30.10,SSW,197,0.0,16.0,70,0.00,,,0.00,0,Wunderground v.1.15,2013-03-03 02:50:00,
2013-03-02 21:00:00,31.4,22.7,30.10,South,173,0.0,16.0,70,0.00,,,0.00,0,Wunderground v.1.15,2013-03-03 03:00:00,
2013-03-02 21:10:00,31.4,22.7,30.10,SSE,161,0.0,16.0,70,0.00,,,0.00,0,Wunderground v.1.15,2013-03-03 03:10:00,
2013-03-02 21:20:00,31.3,22.6,30.09,South,185,0.0,16.0,70,0.00,,,0.00,0,Wunderground v.1.15,2013-03-03 03:20:00,
2013-03-02 21:30:00,31.2,22.5,30.08,SSE,162,0.0,16.0,70,0.00,,,0.00,0,Wunderground v.1.15,2013-03-03 03:30:00,
2013-03-02 21:40:00,31.1,22.5,30.08,South,173,0.0,16.0,70,0.00,,,0.00,0,Wunderground v.1.15,2013-03-03 03:40:00,
2013-03-02 21:45:00,31.0,22.4,30.08,SSE,148,0.0,16.0,70,0.00,,,0.00,0,Wunderground v.1.15,2013-03-03 03:45:00,
2013-03-02 21:55:00,30.9,22.6,30.08,SE,131,0.0,16.0,71,0.00,,,0.00,0,Wunderground v.1.15,2013-03-03 03:55:00,
2013-03-02 22:05:00,30.7,22.7,30.08,SE,144,0.0,16.0,72,0.00,,,0.00,0,Wunderground v.1.15,2013-03-03 04:05:00,
2013-03-02 22:15:00,30.5,22.9,30.08,South,177,0.0,16.0,73,0.00,,,0.00,0,Wunderground v.1.15,2013-03-03 04:15:00,
2013-03-02 22:20:00,30.4,22.8,30.08,SE,146,0.0,16.0,73,0.00,,,0.00,0,Wunderground v.1.15,2013-03-03 04:20:00,
2013-03-02 22:25:00,30.4,23.1,30.08,SE,142,0.0,16.0,74,0.00,,,0.00,0,Wunderground v.1.15,2013-03-03 04:25:00,
2013-03-02 22:35:00,30.2,23.2,30.07,South,170,0.0,16.0,75,0.00,,,0.00,0,Wunderground v.1.15,2013-03-03 04:35:00,
2013-03-02 22:45:00,30.0,23.4,30.07,SE,139,0.0,16.0,76,0.00,,,0.00,0,Wunderground v.1.15,2013-03-03 04:45:00,
2013-03-02 22:55:00,29.8,23.5,30.07,South,169,0.0,16.0,77,0.00,,,0.00,0,Wunderground v.1.15,2013-03-03 04:55:00,
2013-03-02 23:00:00,29.7,23.4,30.07,SE,144,0.0,16.0,77,0.00,,,0.00,0,Wunderground v.1.15,2013-03-03 05:00:00,
2013-03-02 23:05:00,29.6,23.3,30.07,SE,136,0.0,16.0,77,0.00,,,0.00,0,Wunderground v.1.15,2013-03-03 05:05:00,
2013-03-02 23:10:00,29.5,23.2,30.07,SSE,152,0.0,16.0,77,0.00,,,0.00,0,Wunderground v.1.15,2013-03-03 05:10:00,
2013-03-02 23:15:00,29.3,23.3,30.07,SSE,157,0.0,16.0,78,0.00,,,0.00,0,Wunderground v.1.15,2013-03-03 05:15:00,
2013-03-02 23:20:00,29.2,23.2,30.07,SE,134,0.0,16.0,78,0.00,,,0.00,0,Wunderground v.1.15,2013-03-03 05:20:00,
2013-03-02 23:30:00,28.8,23.1,30.06,SSE,157,0.0,16.0,79,0.00,,,0.00,0,Wunderground v.1.15,2013-03-03 05:30:00,
2013-03-02 23:40:00,28.5,23.1,30.06,SE,146,0.0,16.0,80,0.00,,,0.00,0,Wunderground v.1.15,2013-03-03 05:40:00,
2013-03-02 23:50:00,28.2,23.1,30.05,SE,142,0.0,16.0,81,0.00,,,0.00,0,Wunderground v.1.15,2013-03-03 05:50:00,
2013-03-02 23:55:00,28.1,23.0,30.05,SSE,157,0.0,16.0,81,0.00,,,0.00,0,Wunderground v.1.15,2013-03-03 05:55:00,